TRA5964 EKCH-EHEH

Flight info

Callsign TRA5964
Flight time 1h 5m
Altitude 36000
Route NEXEN2C NEXEN T503 MICOS DCT NIE DCT DENOL DCT DOMEG DCT ROTEK ROTEK3E
Aircraft B738/M-SDE2E3FGHIRWXY/LB1

Departure

Time 2026-05-04 13:42
Airport Copenhagen Kastrup Airport (EKCH)

Arrival

Time 2026-05-04 14:48
Airport Eindhoven Airport (EHEH)
Time Latitude Longitude Altitude Speed Heading
2026-05-04 13:12 55.62699 12.64591 20 ft 0 kts 283°
2026-05-04 13:15 55.62699 12.64592 20 ft 0 kts 283°
2026-05-04 13:22 55.62699 12.64593 20 ft 0 kts 283°
2026-05-04 13:30 55.62694 12.64589 20 ft 1 kts 317°
2026-05-04 13:30 55.62682 12.64606 21 ft 3 kts 316°
2026-05-04 13:31 55.62672 12.64628 24 ft 7 kts 268°
2026-05-04 13:31 55.62662 12.64628 23 ft 3 kts 193°
2026-05-04 13:31 55.62643 12.64632 21 ft 9 kts 169°
2026-05-04 13:31 55.62624 12.64641 19 ft 11 kts 167°
2026-05-04 13:32 55.62604 12.64647 19 ft 8 kts 171°
2026-05-04 13:32 55.62595 12.64648 18 ft 9 kts 180°
2026-05-04 13:32 55.62600 12.64649 18 ft 9 kts 178°
2026-05-04 13:32 55.62602 12.64649 18 ft 38 kts 178°
2026-05-04 13:37 55.62593 12.64649 18 ft 1 kts 178°
2026-05-04 13:37 55.62582 12.64650 18 ft 3 kts 179°
2026-05-04 13:37 55.62547 12.64651 19 ft 6 kts 179°
2026-05-04 13:38 55.62503 12.64655 21 ft 6 kts 175°
2026-05-04 13:38 55.62461 12.64667 22 ft 6 kts 168°
2026-05-04 13:38 55.62416 12.64675 22 ft 7 kts 175°
2026-05-04 13:38 55.62357 12.64675 21 ft 10 kts 187°
2026-05-04 13:39 55.62297 12.64599 19 ft 12 kts 240°
2026-05-04 13:39 55.62268 12.64470 20 ft 11 kts 245°
2026-05-04 13:39 55.62217 12.64363 16 ft 12 kts 214°
2026-05-04 13:39 55.62145 12.64300 16 ft 11 kts 206°
2026-05-04 13:40 55.62075 12.64241 18 ft 11 kts 204°
2026-05-04 13:40 55.62006 12.64184 18 ft 11 kts 206°
2026-05-04 13:40 55.61938 12.64129 20 ft 11 kts 204°
2026-05-04 13:40 55.61870 12.64080 20 ft 10 kts 192°
2026-05-04 13:41 55.61799 12.64077 19 ft 12 kts 177°
2026-05-04 13:41 55.61698 12.64083 19 ft 18 kts 178°
2026-05-04 13:41 55.61589 12.64007 19 ft 19 kts 221°
2026-05-04 13:42 55.60602 12.62466 131 ft 161 kts 223°
2026-05-04 13:42 55.59675 12.61085 938 ft 178 kts 225°
2026-05-04 13:42 55.58745 12.59654 2149 ft 181 kts 225°
2026-05-04 13:42 55.57722 12.58111 2618 ft 207 kts 222°
2026-05-04 13:43 55.56502 12.56494 2994 ft 228 kts 220°
2026-05-04 13:43 55.55173 12.54793 3573 ft 247 kts 219°
2026-05-04 13:43 55.53751 12.52985 4423 ft 254 kts 219°
2026-05-04 13:43 55.52321 12.51171 5475 ft 253 kts 220°
2026-05-04 13:44 55.50891 12.49352 6458 ft 254 kts 220°
2026-05-04 13:44 55.49452 12.47519 7353 ft 257 kts 220°
2026-05-04 13:44 55.47998 12.45665 8263 ft 258 kts 220°
2026-05-04 13:44 55.46539 12.43803 9206 ft 260 kts 220°
2026-05-04 13:45 55.45065 12.41920 10064 ft 263 kts 220°
2026-05-04 13:45 55.43541 12.39970 10501 ft 283 kts 220°
2026-05-04 13:45 55.41877 12.37834 10698 ft 309 kts 219°
2026-05-04 13:45 55.40071 12.35520 10900 ft 332 kts 219°
2026-05-04 13:46 55.38167 12.33092 11412 ft 343 kts 219°
2026-05-04 13:46 55.36220 12.30617 12140 ft 347 kts 219°
2026-05-04 13:46 55.34254 12.28123 12921 ft 350 kts 219°
2026-05-04 13:46 55.32268 12.25604 13674 ft 354 kts 219°
2026-05-04 13:47 55.30257 12.23057 14346 ft 358 kts 219°
2026-05-04 13:47 55.28230 12.20490 15026 ft 362 kts 219°
2026-05-04 13:47 55.26179 12.17895 15700 ft 364 kts 219°
2026-05-04 13:47 55.24116 12.15289 16386 ft 367 kts 219°
2026-05-04 13:48 55.22038 12.12664 17047 ft 370 kts 219°
2026-05-04 13:48 55.19938 12.10016 17696 ft 373 kts 219°
2026-05-04 13:48 55.17820 12.07349 18304 ft 377 kts 219°
2026-05-04 13:48 55.15681 12.04658 18847 ft 380 kts 219°
2026-05-04 13:49 55.13527 12.01954 19420 ft 382 kts 219°
2026-05-04 13:49 55.11360 11.99236 19982 ft 385 kts 219°
2026-05-04 13:49 55.09178 11.96504 20533 ft 387 kts 219°
2026-05-04 13:49 55.06978 11.93753 21073 ft 390 kts 219°
2026-05-04 13:50 55.04765 11.90988 21614 ft 393 kts 219°
2026-05-04 13:50 55.02538 11.88210 22123 ft 395 kts 219°
2026-05-04 13:50 55.00292 11.85413 22642 ft 398 kts 219°
2026-05-04 13:50 54.98032 11.82602 23144 ft 400 kts 219°
2026-05-04 13:51 54.95761 11.79781 23608 ft 403 kts 219°
2026-05-04 13:51 54.93512 11.76993 24154 ft 399 kts 219°
2026-05-04 13:51 54.91232 11.74174 24772 ft 396 kts 219°
2026-05-04 13:51 54.88977 11.71385 25124 ft 400 kts 219°
2026-05-04 13:52 54.84412 11.65746 25831 ft 404 kts 220°
2026-05-04 13:52 54.82115 11.62917 26243 ft 405 kts 220°
2026-05-04 13:52 54.79843 11.60123 26634 ft 406 kts 220°
2026-05-04 13:53 54.77537 11.57291 27002 ft 407 kts 220°
2026-05-04 13:53 54.75220 11.54449 27347 ft 409 kts 220°
2026-05-04 13:53 54.72893 11.51599 27694 ft 410 kts 220°
2026-05-04 13:54 54.68230 11.45902 28506 ft 409 kts 219°
2026-05-04 13:54 54.65911 11.43078 29001 ft 407 kts 220°
2026-05-04 13:54 54.61313 11.37486 29999 ft 402 kts 220°
2026-05-04 13:55 54.59030 11.34713 30364 ft 402 kts 220°
2026-05-04 13:55 54.54421 11.29124 30807 ft 407 kts 220°
2026-05-04 13:55 54.52108 11.26326 31142 ft 406 kts 219°
2026-05-04 13:56 54.49795 11.23534 31459 ft 406 kts 219°
2026-05-04 13:56 54.47475 11.20737 31686 ft 407 kts 219°
2026-05-04 13:56 54.42849 11.15171 32377 ft 405 kts 219°
2026-05-04 13:57 54.40535 11.12392 32649 ft 406 kts 219°
2026-05-04 13:57 54.38221 11.09616 32939 ft 407 kts 219°
2026-05-04 13:58 54.31270 11.01303 33843 ft 406 kts 218°
2026-05-04 13:58 54.26443 10.96167 34297 ft 410 kts 214°
2026-05-04 13:58 54.23982 10.93690 34454 ft 411 kts 214°
2026-05-04 13:59 54.21510 10.91216 34678 ft 412 kts 214°
2026-05-04 13:59 54.19037 10.88739 34864 ft 413 kts 214°
2026-05-04 13:59 54.14067 10.83749 35220 ft 416 kts 214°
2026-05-04 14:00 54.11574 10.81241 35419 ft 417 kts 214°
2026-05-04 14:00 54.06572 10.76214 35819 ft 418 kts 214°
2026-05-04 14:00 54.04066 10.73699 35981 ft 420 kts 214°
2026-05-04 14:01 53.99006 10.68629 35979 ft 422 kts 214°
2026-05-04 14:02 53.91457 10.61099 35988 ft 417 kts 214°
2026-05-04 14:02 53.86459 10.56129 35991 ft 415 kts 214°
2026-05-04 14:03 53.81479 10.51189 35992 ft 414 kts 214°
2026-05-04 14:03 53.76502 10.46267 35981 ft 415 kts 214°
2026-05-04 14:04 53.69044 10.38913 35991 ft 417 kts 214°
2026-05-04 14:04 53.63985 10.33943 35983 ft 419 kts 214°
2026-05-04 14:05 53.56419 10.26539 35988 ft 423 kts 214°
2026-05-04 14:06 53.51328 10.21574 35979 ft 424 kts 214°
2026-05-04 14:06 53.46222 10.16607 35981 ft 425 kts 214°
2026-05-04 14:07 53.41103 10.11643 35962 ft 425 kts 214°
2026-05-04 14:07 53.36841 10.07521 35965 ft 426 kts 213°
2026-05-04 14:08 53.31714 10.02575 35946 ft 425 kts 213°
2026-05-04 14:08 53.26606 9.97661 35946 ft 422 kts 213°
2026-05-04 14:09 53.18999 9.90368 35958 ft 419 kts 213°
2026-05-04 14:10 53.11448 9.83157 35958 ft 416 kts 213°
2026-05-04 14:10 53.06439 9.78389 35958 ft 414 kts 213°
2026-05-04 14:11 53.01440 9.73644 35961 ft 413 kts 213°
2026-05-04 14:11 52.93945 9.66553 35972 ft 414 kts 213°
2026-05-04 14:12 52.88931 9.61825 35957 ft 415 kts 213°
2026-05-04 14:13 52.81411 9.54701 35950 ft 414 kts 215°
2026-05-04 14:13 52.76567 9.49550 35955 ft 415 kts 217°
2026-05-04 14:14 52.71752 9.44297 35955 ft 414 kts 217°
2026-05-04 14:14 52.64563 9.36568 35950 ft 412 kts 216°
2026-05-04 14:15 52.54975 9.26388 35957 ft 409 kts 216°
2026-05-04 14:16 52.47784 9.18791 35977 ft 408 kts 216°
2026-05-04 14:17 52.40633 9.11265 35943 ft 409 kts 216°
2026-05-04 14:18 52.33468 9.03755 35962 ft 407 kts 216°
2026-05-04 14:19 52.23904 8.93773 35961 ft 410 kts 216°
2026-05-04 14:19 52.19096 8.88775 35975 ft 409 kts 215°
2026-05-04 14:20 52.14294 8.83796 35960 ft 409 kts 215°
2026-05-04 14:20 52.09496 8.78833 35965 ft 409 kts 215°
2026-05-04 14:21 52.02296 8.71402 35955 ft 408 kts 217°
2026-05-04 14:21 52.00117 8.68503 35958 ft 404 kts 228°
2026-05-04 14:21 51.98304 8.65034 35960 ft 403 kts 234°
2026-05-04 14:22 51.95679 8.57043 35973 ft 403 kts 247°
2026-05-04 14:22 51.93626 8.48568 35964 ft 404 kts 247°
2026-05-04 14:23 51.90526 8.35892 35965 ft 406 kts 247°
2026-05-04 14:24 51.88418 8.27408 35976 ft 407 kts 246°
2026-05-04 14:24 51.86291 8.18906 35969 ft 408 kts 246°
2026-05-04 14:25 51.84152 8.10392 35966 ft 409 kts 246°
2026-05-04 14:25 51.81995 8.01834 35423 ft 414 kts 246°
2026-05-04 14:25 51.80914 7.97556 34824 ft 411 kts 246°
2026-05-04 14:26 51.79834 7.93291 34170 ft 409 kts 246°
2026-05-04 14:26 51.78758 7.89050 33418 ft 406 kts 246°
2026-05-04 14:26 51.77694 7.84862 32695 ft 400 kts 245°
2026-05-04 14:26 51.76642 7.80729 31989 ft 396 kts 245°
2026-05-04 14:27 51.75593 7.76616 31286 ft 397 kts 245°
2026-05-04 14:27 51.74540 7.72499 30675 ft 396 kts 245°
2026-05-04 14:27 51.73494 7.68407 30182 ft 393 kts 244°
2026-05-04 14:27 51.72454 7.64353 29610 ft 390 kts 244°
2026-05-04 14:28 51.71491 7.60290 29061 ft 387 kts 250°
2026-05-04 14:28 51.70858 7.56070 28312 ft 391 kts 257°
2026-05-04 14:28 51.70622 7.51708 27745 ft 388 kts 262°
2026-05-04 14:28 51.70436 7.47385 27170 ft 386 kts 262°
2026-05-04 14:29 51.70028 7.38616 26144 ft 400 kts 262°
2026-05-04 14:29 51.69599 7.29734 25117 ft 395 kts 262°
2026-05-04 14:30 51.69384 7.25343 24612 ft 392 kts 262°
2026-05-04 14:30 51.69168 7.20985 24104 ft 388 kts 262°
2026-05-04 14:30 51.68735 7.12378 23025 ft 382 kts 262°
2026-05-04 14:31 51.68518 7.08125 22480 ft 379 kts 262°
2026-05-04 14:31 51.68089 6.99806 21478 ft 372 kts 262°
2026-05-04 14:32 51.67659 6.91581 20509 ft 366 kts 262°
2026-05-04 14:32 51.67444 6.87512 20032 ft 363 kts 262°
2026-05-04 14:32 51.67229 6.83469 19557 ft 361 kts 262°
2026-05-04 14:32 51.67013 6.79443 19088 ft 360 kts 262°
2026-05-04 14:33 51.66797 6.75430 18606 ft 359 kts 263°
2026-05-04 14:33 51.66579 6.71422 18090 ft 359 kts 263°
2026-05-04 14:33 51.66361 6.67416 17561 ft 358 kts 263°
2026-05-04 14:33 51.66142 6.63432 17065 ft 356 kts 263°
2026-05-04 14:34 51.65924 6.59475 16579 ft 354 kts 263°
2026-05-04 14:34 51.65706 6.55539 16107 ft 352 kts 264°
2026-05-04 14:34 51.65487 6.51624 15642 ft 350 kts 264°
2026-05-04 14:34 51.65268 6.47734 15179 ft 348 kts 264°
2026-05-04 14:35 51.65050 6.43865 14719 ft 346 kts 264°
2026-05-04 14:35 51.64831 6.40017 14261 ft 345 kts 264°
2026-05-04 14:35 51.64611 6.36178 13801 ft 343 kts 264°
2026-05-04 14:35 51.64392 6.32361 13281 ft 342 kts 264°
2026-05-04 14:36 51.64172 6.28554 12795 ft 340 kts 264°
2026-05-04 14:36 51.63952 6.24776 12318 ft 338 kts 264°
2026-05-04 14:36 51.63734 6.21017 11853 ft 336 kts 264°
2026-05-04 14:36 51.63514 6.17276 11385 ft 335 kts 264°
2026-05-04 14:37 51.63293 6.13553 10922 ft 334 kts 264°
2026-05-04 14:37 51.63037 6.09903 10713 ft 324 kts 259°
2026-05-04 14:37 51.62392 6.06457 10321 ft 317 kts 249°
2026-05-04 14:37 51.61620 6.03227 10107 ft 301 kts 248°
2026-05-04 14:38 51.60884 6.00179 9959 ft 285 kts 249°
2026-05-04 14:38 51.60187 5.97255 9646 ft 275 kts 249°
2026-05-04 14:38 51.59520 5.94423 9364 ft 268 kts 249°
2026-05-04 14:38 51.58873 5.91646 9090 ft 262 kts 249°
2026-05-04 14:39 51.58243 5.88926 8808 ft 257 kts 249°
2026-05-04 14:39 51.57628 5.86265 8557 ft 251 kts 249°
2026-05-04 14:39 51.57025 5.83649 8315 ft 251 kts 249°
2026-05-04 14:40 51.55784 5.78261 7756 ft 265 kts 249°
2026-05-04 14:40 51.55138 5.75459 7383 ft 268 kts 249°
2026-05-04 14:40 51.54493 5.72658 7113 ft 266 kts 249°
2026-05-04 14:40 51.53849 5.69864 6832 ft 268 kts 249°
2026-05-04 14:41 51.53197 5.67040 6519 ft 270 kts 249°
2026-05-04 14:41 51.52553 5.64251 6272 ft 272 kts 249°
2026-05-04 14:41 51.51304 5.58361 5599 ft 281 kts 258°
2026-05-04 14:42 51.52683 5.53022 5111 ft 271 kts 310°
2026-05-04 14:42 51.54064 5.50983 4643 ft 270 kts 323°
2026-05-04 14:42 51.55332 5.48873 4345 ft 257 kts 296°
2026-05-04 14:43 51.56164 5.46479 4252 ft 237 kts 311°
2026-05-04 14:43 51.57535 5.45295 4090 ft 222 kts 355°
2026-05-04 14:43 51.58940 5.45935 3964 ft 209 kts 41°
2026-05-04 14:43 51.59570 5.47862 3914 ft 193 kts 89°
2026-05-04 14:44 51.59131 5.49812 3933 ft 190 kts 137°
2026-05-04 14:44 51.57927 5.50707 3587 ft 204 kts 178°
2026-05-04 14:44 51.56571 5.50077 2944 ft 207 kts 210°
2026-05-04 14:44 51.55328 5.48930 2376 ft 202 kts 211°
2026-05-04 14:45 51.54186 5.47750 2071 ft 189 kts 215°
2026-05-04 14:45 51.53164 5.46606 1824 ft 171 kts 216°
2026-05-04 14:45 51.52241 5.45567 1595 ft 154 kts 216°
2026-05-04 14:45 51.51392 5.44614 1395 ft 145 kts 216°
2026-05-04 14:46 51.50568 5.43688 1213 ft 145 kts 216°
2026-05-04 14:46 51.49737 5.42754 1018 ft 147 kts 216°
2026-05-04 14:46 51.48901 5.41817 823 ft 147 kts 216°
2026-05-04 14:46 51.48054 5.40870 606 ft 150 kts 216°
2026-05-04 14:47 51.47207 5.39904 412 ft 146 kts 216°
2026-05-04 14:47 51.46383 5.38989 203 ft 142 kts 217°
2026-05-04 14:47 51.45593 5.38096 77 ft 132 kts 216°
2026-05-04 14:47 51.44941 5.37367 70 ft 86 kts 215°
2026-05-04 14:48 51.44654 5.37042 72 ft 35 kts 216°
2026-05-04 14:48 51.44455 5.36818 75 ft 35 kts 215°
2026-05-04 14:48 51.44252 5.36596 68 ft 35 kts 216°
2026-05-04 14:48 51.44126 5.36382 82 ft 21 kts 265°
2026-05-04 14:49 51.44169 5.36272 84 ft 12 kts 339°
2026-05-04 14:49 51.44260 5.36326 85 ft 18 kts 34°
2026-05-04 14:49 51.44364 5.36439 71 ft 19 kts 33°
2026-05-04 14:49 51.44476 5.36563 74 ft 19 kts 35°
2026-05-04 14:50 51.44585 5.36685 74 ft 19 kts 34°
2026-05-04 14:50 51.44691 5.36801 82 ft 18 kts 34°
2026-05-04 14:50 51.44794 5.36921 84 ft 19 kts 36°
2026-05-04 14:50 51.44911 5.37058 84 ft 22 kts 35°
2026-05-04 14:51 51.45041 5.37200 83 ft 23 kts 34°
2026-05-04 14:51 51.45173 5.37350 74 ft 24 kts 35°
2026-05-04 14:51 51.45303 5.37497 72 ft 23 kts 34°
2026-05-04 14:51 51.45432 5.37637 81 ft 22 kts 34°
2026-05-04 14:52 51.45556 5.37774 82 ft 21 kts 36°
2026-05-04 14:52 51.45680 5.37917 77 ft 23 kts 35°
2026-05-04 14:52 51.45812 5.38064 68 ft 23 kts 35°
2026-05-04 14:52 51.45938 5.38204 75 ft 18 kts 34°
2026-05-04 14:53 51.45991 5.38315 72 ft 12 kts 98°
2026-05-04 14:53 51.45950 5.38424 68 ft 11 kts 124°
2026-05-04 14:53 51.45908 5.38524 73 ft 11 kts 124°
2026-05-04 14:53 51.45864 5.38622 68 ft 12 kts 126°
2026-05-04 14:54 51.45810 5.38741 69 ft 14 kts 126°
2026-05-04 14:54 51.45776 5.38884 68 ft 13 kts 124°
2026-05-04 14:54 51.45752 5.38939 69 ft 0 kts 125°